This is the latest recevied weather packets stored in our database for station/object SR9NLI. If no packets are shown the sender has not sent any weather packets the latest 1 day(s).
| Time | Temp. | Humidity | Pressure | Rain* | Wind** | Luminosity | Snow |
|---|---|---|---|---|---|---|---|
| 1778067542 | 21.67° C | 100% | 949.8 hPa | - | - | - | - |
| 1778067419 | 21.11° C | 100% | 949.7 hPa | - | - | - | - |
| 1778067235 | 21.11° C | 100% | 949.9 hPa | - | - | - | - |
| 1778067173 | 21.11° C | 100% | 949.9 hPa | - | - | - | - |
| 1778066558 | 20.56° C | 100% | 949.8 hPa | - | - | - | - |
| 1778066497 | 21.67° C | 100% | 949.8 hPa | - | - | - | - |
| 1778066435 | 21.67° C | 100% | 949.8 hPa | - | - | - | - |
| 1778066312 | 21.67° C | 100% | 950 hPa | - | - | - | - |
| 1778066129 | 21.67° C | 100% | 949.9 hPa | - | - | - | - |
| 1778065760 | 21.67° C | 100% | 950 hPa | - | - | - | - |
| 1778065698 | 21.67° C | 100% | 950 hPa | - | - | - | - |
| 1778065378 | 21.11° C | 100% | 949.9 hPa | - | - | - | - |
| 1778065193 | 21.11° C | 100% | 949.9 hPa | - | - | - | - |
| 1778064824 | 21.11° C | 100% | 950 hPa | - | - | - | - |
| 1778064577 | 21.67° C | 100% | 950 hPa | - | - | - | - |
| 1778064271 | 21.67° C | 100% | 950 hPa | - | - | - | - |
| 1778064085 | 21.67° C | 100% | 950.1 hPa | - | - | - | - |
| 1778063962 | 21.11° C | 100% | 950.1 hPa | - | - | - | - |
| 1778063224 | 21.11° C | 100% | 950.1 hPa | - | - | - | - |
| 1778062794 | 21.67° C | 100% | 950.2 hPa | - | - | - | - |
| 1778062732 | 21.67° C | 100% | 950.2 hPa | - | - | - | - |
| 1778062609 | 21.67° C | 100% | 950.3 hPa | - | - | - | - |
| 1778062486 | 21.11° C | 100% | 950.3 hPa | - | - | - | - |
| 1778062240 | 20.56° C | 100% | 950.2 hPa | - | - | - | - |
| 1778062056 | 20° C | 100% | 950.2 hPa | - | - | - | - |
* Rain since midnight (hover to see other rain measurements)
** Current wind speed in m/s (hover to see current wind gust speed)